Timation II

operational
NORAD ID: 4257 Int'l Des: 1969-082 Owner: NRL Country: US
LEOCIRCULAR

About Timation II

Description loading...

Live Position

Loading 3D Globe...

Upcoming Passes

Altitude History

Altitude vs Time

uPlot chart will show altitude changes over time

Two-Line Element Set

1 4257U 69082C 25278.40670880 .00000102 00000-0 11226-3 0 9998
2 4257 70.0130 276.1562 0017538 95.3322 15.6825 13.96320401851086
Epoch: Oct 5, 2025 • Age: 18 hours

Current Status

Altitude 942.8 km
Velocity 7.37 km/s
Sub-Earth Point -63.70°S, 155.46°E
Type other

Large Constellations

Loading constellations...